GFSWCAN_925_rhum_003.txt.gz
RH
98 99 99 99 99 98 99 99 99 99 99 99 99 99 100 99 92 91 96 70 72 76 69 62 55 54 54 55 62 56 61 56 52 55 55 62 57 49 53 43 51 58 72 74 63 72 86 34 36 50 35 39 48 43
98 98 99 98 98 98 98 99 99 98 99 98 98 98 100 100 100 100 99 90 77 91 81 79 68 61 48 48 64 59 65 56 49 65 68 65 67 66 56 70 42 56 44 46 63 60 37 35 37 34 35 38 38 40
99 98 98 98 98 98 98 98 98 98 97 94 95 100 100 100 100 100 100 100 97 98 95 94 78 71 72 64 50 62 53 47 52 51 72 81 88 73 78 66 56 44 37 45 44 38 34 31 30 31 37 41 40 51
96 97 96 98 99 99 99 98 98 98 96 93 94 95 99 100 100 99 98 98 96 92 97 76 74 72 71 73 70 59 58 56 60 72 82 89 92 73 78 60 66 51 49 50 49 42 38 34 34 44 48 57 60 62
95 96 96 96 96 96 98 97 96 97 97 92 93 99 100 98 100 100 100 98 96 99 96 85 72 69 74 72 73 69 58 60 76 91 93 94 87 88 87 85 86 54 53 54 56 40 42 43 43 45 48 55 57 58
97 97 98 97 94 92 93 94 93 93 94 90 88 91 94 99 100 98 100 100 100 100 100 100 69 67 72 76 72 69 69 69 80 91 93 92 78 80 96 98 59 45 43 45 52 44 44 44 55 56 57 58 62 68
100 95 96 98 94 90 90 91 90 90 90 89 87 85 88 99 100 100 96 97 99 100 99 98 93 71 75 74 79 81 81 90 90 94 98 91 93 89 95 87 54 42 40 41 40 43 52 50 66 63 68 80 93 97
100 97 94 98 98 94 90 91 92 87 87 83 84 92 95 99 100 100 99 100 100 95 94 99 98 79 77 84 82 76 90 92 96 94 94 96 93 96 100 68 54 48 44 44 43 47 70 76 77 97 98 98 98 92
100 97 91 93 97 97 95 92 88 87 84 85 99 99 96 94 98 99 97 99 100 94 100 100 100 98 76 81 82 83 80 95 83 98 91 91 86 99 81 66 54 46 50 56 84 90 93 97 100 97 96 96 84 40
95 90 89 90 91 94 95 94 93 91 94 99 89 92 100 99 98 92 93 97 100 99 99 100 83 86 74 79 92 88 98 93 100 89 85 100 84 62 57 55 53 54 72 75 98 100 100 100 96 93 88 50 35 36
89 84 83 86 90 91 91 94 95 93 99 99 91 97 100 94 93 89 100 99 100 100 95 91 83 91 78 92 98 96 100 100 99 82 97 90 80 64 54 63 61 70 70 72 72 70 75 77 86 74 39 36 39 38
90 85 83 80 85 94 96 95 97 99 99 90 88 95 91 94 100 100 100 99 99 98 86 94 90 85 98 98 99 100 100 99 97 76 91 84 61 50 50 50 56 64 66 68 66 75 75 79 62 28 30 34 34 35
89 87 85 82 92 95 93 94 99 100 94 87 92 100 91 100 100 99 92 96 95 94 97 98 98 90 98 100 100 100 100 93 69 83 80 63 54 48 47 57 68 72 63 54 52 38 30 30 29 32 32 34 37 39
86 84 84 82 85 90 95 96 98 98 85 98 100 100 96 95 85 87 77 88 90 94 97 88 97 88 83 98 91 97 80 80 89 90 84 46 41 42 46 59 70 78 57 45 40 34 34 34 36 38 42 40 41 41
89 83 82 79 80 85 88 92 99 100 92 98 99 92 99 81 93 92 87 87 87 91 94 93 91 80 90 94 89 89 93 89 75 72 51 40 38 41 47 62 67 72 64 44 34 35 35 34 38 39 44 47 46 45
87 85 84 75 74 80 82 84 99 100 100 100 100 99 86 96 99 93 93 96 91 86 84 87 92 93 91 89 94 89 83 81 71 68 65 61 49 41 48 58 64 65 62 50 37 39 42 45 43 43 46 48 48 50
83 87 79 81 78 77 89 97 97 100 100 100 100 88 81 97 97 88 83 80 78 83 93 93 96 88 83 94 92 73 84 61 68 64 56 56 56 53 50 56 63 67 67 58 42 47 48 47 50 53 52 53 58 59
85 71 83 92 89 87 92 98 98 100 99 99 98 93 82 74 81 85 74 83 86 84 88 95 85 97 90 87 69 67 75 66 66 61 50 46 46 48 64 64 65 72 70 63 55 57 65 68 68 60 55 57 57 55
92 80 82 90 92 99 100 99 100 98 93 89 82 85 81 78 76 74 78 84 78 81 91 98 97 93 76 66 65 64 63 66 58 52 53 48 45 42 52 70 84 86 80 71 68 63 58 62 55 52 53 54 53 51
79 75 82 90 95 99 100 100 100 100 97 89 92 96 90 83 82 84 83 87 92 100 100 97 77 61 57 54 66 63 53 50 42 50 56 38 47 72 75 76 69 72 73 72 70 68 61 60 55 56 57 58 61 58
78 80 80 90 95 100 100 100 100 98 91 92 90 90 88 92 95 97 97 92 98 97 89 69 60 51 57 47 36 48 41 38 59 74 54 47 53 60 68 75 81 71 64 61 61 56 63 57 57 60 65 66 65 65
78 73 88 92 100 100 100 98 92 86 90 89 89 86 92 96 95 94 91 98 96 77 66 58 56 56 66 60 40 38 41 50 71 46 59 62 59 67 69 73 77 80 76 77 67 61 60 60 63 67 66 64 66 68
70 69 91 99 100 100 98 92 95 94 92 90 92 93 92 94 86 84 93 83 78 63 59 61 66 71 71 57 48 61 75 87 66 45 49 56 58 70 75 76 78 81 78 70 70 68 70 71 70 71 71 69 70 72
90 99 100 100 98 93 90 94 87 88 87 88 92 90 87 87 84 93 91 71 59 69 73 77 71 68 71 82 85 90 93 70 55 61 61 59 65 66 72 64 68 72 70 72 73 73 74 75 75 74 74 76 77 77
100 99 99 96 95 94 96 94 93 90 96 89 92 89 90 86 91 90 85 68 74 74 71 75 75 70 77 73 63 65 74 74 62 64 67 60 63 68 72 66 65 71 73 80 75 75 77 78 79 79 79 80 82 86
95 90 97 90 92 90 87 96 95 94 83 94 88 81 85 88 92 91 75 76 69 74 76 78 75 76 74 68 70 68 68 70 63 62 71 66 63 74 79 71 64 71 80 86 90 87 86 84 84 89 88 83 82 86
91 96 86 69 70 73 78 73 68 79 94 96 87 93 90 93 92 73 76 79 81 82 87 88 83 74 71 80 84 85 79 74 73 73 78 72 68 76 80 77 76 82 91 99 97 96 94 93 93 91 91 92 91 90
82 79 96 91 85 76 89 85 92 96 83 70 75 94 93 86 83 86 85 87 95 97 97 96 96 92 88 88 87 86 84 77 71 67 69 76 81 77 76 79 83 94 98 90 97 97 98 98 98 97 96 94 93 88
91 88 81 98 94 92 91 88 86 76 86 80 86 85 86 80 82 82 88 96 96 97 89 89 96 94 91 86 82 82 80 77 68 73 70 74 76 83 81 87 88 85 88 88 92 91 90 92 92 92 94 97 91 85
93 83 88 93 94 92 88 84 87 87 84 85 84 89 88 89 94 98 98 97 95 93 96 96 97 88 85 84 88 93 84 77 72 75 73 75 78 86 86 90 88 89 85 94 92 87 88 89 90 90 95 92 86 85
85 90 90 86 90 88 86 86 87 88 91 92 92 92 91 91 93 99 98 97 97 96 94 91 94 95 85 85 87 83 92 90 85 81 81 82 80 80 91 92 89 84 84 95 96 95 96 99 100 99 94 92 91 91
90 92 91 92 92 90 90 92 92 92 92 92 92 90 91 90 91 90 98 96 96 93 94 96 93 95 100 96 94 98 98 91 92 89 86 84 83 92 96 90 87 93 100 96 94 95 96 97 100 98 96 91 91 94
92 92 93 92 92 92 92 92 92 93 92 91 90 90 91 90 92 90 97 96 97 98 98 98 96 96 95 92 94 99 92 91 90 97 100 94 88 96 93 98 98 96 95 93 94 96 93 95 98 96 94 91 92 97

GFSWCAN_925_rhum_009.txt.gz
RH
87 88 92 92 92 92 93 92 91 91 91 92 94 98 100 98 92 91 98 73 83 92 81 62 56 59 56 63 70 64 64 62 62 64 78 77 75 67 62 59 76 79 90 85 79 83 84 45 44 50 56 53 54 55
91 92 90 92 94 93 92 96 94 92 92 91 95 96 100 99 100 92 98 81 77 92 92 86 76 70 50 53 65 61 71 64 63 80 78 78 74 73 69 73 50 65 68 80 75 73 52 50 56 51 52 56 57 54
94 93 90 94 96 95 96 97 96 91 90 88 90 92 92 100 99 95 95 88 83 94 92 89 85 73 66 51 48 68 66 58 62 73 78 81 75 76 82 79 61 58 53 66 60 52 50 54 62 58 56 58 62 59
96 94 94 96 95 95 97 96 97 95 92 88 85 89 100 100 100 99 96 92 84 93 95 93 72 72 72 70 57 57 60 64 71 78 89 86 84 73 87 82 83 71 64 71 74 61 57 53 54 55 58 59 63 62
95 94 95 92 92 93 92 93 94 95 92 89 86 82 98 100 100 100 98 98 94 91 98 95 81 75 72 74 73 58 61 71 78 83 89 93 91 85 90 94 99 78 75 85 86 66 67 66 60 60 66 64 70 72
98 93 96 94 94 93 92 92 91 92 92 88 86 83 88 96 100 99 99 99 100 93 94 100 83 79 75 73 78 78 72 78 85 89 92 92 82 83 97 90 78 77 68 64 72 53 60 62 67 65 69 73 83 87
100 100 97 96 95 93 91 91 90 89 88 86 84 81 94 100 100 99 96 99 100 95 98 100 100 84 75 81 88 89 86 92 90 93 95 95 93 91 98 98 69 71 57 56 57 58 61 74 75 82 90 96 96 96
100 100 100 100 100 97 94 91 88 87 86 85 82 81 95 99 95 98 100 99 100 96 96 100 100 91 78 96 98 91 99 94 96 95 97 97 98 97 100 86 72 63 64 62 79 76 72 84 94 96 96 96 98 95
98 99 100 100 100 100 97 92 91 88 86 82 87 95 99 92 96 96 99 100 99 90 100 100 100 100 83 93 94 92 91 99 98 99 97 93 98 99 87 85 74 72 63 67 96 96 97 96 98 97 94 96 94 91
100 98 97 99 100 100 99 93 90 89 87 91 99 95 100 100 98 90 87 92 100 100 100 100 96 98 88 92 98 95 96 99 99 93 92 100 98 78 78 76 75 72 82 86 88 85 98 98 95 96 98 86 84 84
100 99 98 97 98 100 100 96 92 93 97 98 98 100 100 94 90 94 98 100 99 100 99 98 94 98 89 95 95 93 98 99 96 90 92 94 97 81 65 70 81 82 75 80 78 79 84 89 94 93 89 83 85 48
100 100 99 98 97 98 98 98 98 100 96 83 87 91 89 96 99 95 93 98 99 94 99 98 97 96 100 99 99 100 94 98 90 92 96 87 83 64 62 57 63 72 72 76 72 79 82 83 90 91 88 68 44 41
97 100 99 100 98 98 93 96 100 99 86 76 91 100 96 100 98 93 94 90 98 99 100 100 99 98 100 98 100 99 98 96 88 96 91 83 74 61 59 60 64 75 74 67 66 66 70 83 79 70 48 40 39 37
92 100 100 100 97 94 87 92 98 98 94 99 98 99 92 100 93 95 93 94 98 98 99 97 100 97 99 100 97 94 99 90 98 98 89 75 70 68 63 60 60 57 70 66 61 55 44 45 39 35 34 34 35 39
88 95 98 99 90 94 94 94 98 100 99 100 97 94 98 92 99 99 99 94 99 96 94 97 94 90 96 93 89 97 98 96 92 88 86 77 54 58 54 59 64 70 79 83 66 58 45 41 40 39 37 38 40 42
93 88 88 94 89 89 96 98 100 100 100 100 99 99 98 96 99 97 98 100 99 98 97 94 93 92 89 84 94 96 93 92 83 91 91 92 60 56 55 57 64 72 80 85 75 56 46 44 43 42 40 43 46 48
100 83 72 80 89 89 97 99 100 100 100 99 99 97 98 98 94 96 96 98 94 94 99 94 96 90 95 96 100 93 94 86 90 93 96 90 83 76 65 56 62 70 79 82 81 60 45 40 41 49 64 52 50 51
99 80 74 74 89 96 100 100 100 100 99 100 99 99 96 95 98 99 98 95 95 98 97 97 90 95 97 88 94 88 89 93 92 90 91 83 77 74 74 68 59 66 76 78 79 66 49 56 64 65 54 54 60 60
97 94 86 89 87 96 100 100 100 99 99 100 99 99 96 96 97 90 97 96 98 96 96 98 98 92 96 93 87 85 94 92 76 71 79 74 71 64 55 54 60 80 82 81 77 66 58 55 59 62 62 57 59 58
96 98 100 100 88 99 100 99 99 99 100 97 98 99 99 98 99 99 99 98 97 96 97 97 96 90 89 78 91 90 89 79 82 83 79 71 60 65 72 78 81 79 85 75 69 70 70 70 63 59 57 61 69 67
99 100 100 100 99 100 99 99 99 98 99 98 99 96 100 97 99 99 99 98 99 99 96 95 91 70 73 79 63 70 80 82 84 75 68 90 67 74 84 82 76 80 81 81 82 77 71 67 60 60 60 64 68 70
93 100 100 100 100 100 99 99 99 99 95 97 95 93 97 99 98 98 98 99 98 94 93 86 72 83 84 77 73 68 61 62 65 74 81 75 92 92 94 82 91 96 88 81 76 76 66 63 65 69 70 71 74 67
97 99 100 100 98 99 98 100 97 97 98 97 97 98 96 94 97 96 99 96 89 91 90 91 82 71 85 75 63 60 56 59 84 92 94 88 94 94 97 97 92 95 95 83 67 67 70 71 70 77 71 68 75 77
84 98 96 100 98 97 95 97 90 94 95 99 99 100 100 97 93 97 97 95 93 96 94 89 94 93 91 89 83 80 73 81 93 98 97 97 97 97 97 96 96 93 74 72 68 73 76 76 76 70 76 81 83 88
96 99 96 100 91 92 92 96 96 95 100 100 96 100 100 97 99 97 93 91 97 98 96 95 94 96 96 98 90 95 100 98 97 97 98 96 96 96 96 91 75 72 68 71 78 78 80 76 79 82 85 89 92 93
97 97 90 94 99 92 97 95 90 96 97 100 98 96 99 99 100 98 94 99 99 100 99 99 99 99 97 100 97 94 96 97 97 94 96 96 96 94 88 84 84 83 74 69 73 78 81 87 92 94 93 90 92 95
96 100 96 81 89 88 94 89 89 95 100 94 99 100 99 100 98 86 99 99 100 98 97 95 99 100 100 98 96 96 96 97 96 95 95 89 83 71 62 77 89 80 81 83 82 86 93 96 96 95 98 97 98 100
88 85 89 94 94 95 94 97 100 97 95 90 88 100 93 88 84 98 99 97 96 95 96 96 96 97 96 97 96 96 96 96 92 79 72 75 75 72 70 75 92 91 80 88 96 96 93 89 93 98 99 100 93 73
93 94 92 97 100 100 95 92 92 90 83 92 91 93 92 91 97 97 91 91 91 96 98 95 97 97 97 96 96 95 95 88 75 79 80 88 91 86 82 75 74 77 74 70 77 93 94 92 95 94 88 82 73 71
99 95 95 100 96 99 93 93 97 100 96 92 86 95 96 99 98 95 96 94 94 95 96 95 95 94 96 94 96 95 92 81 74 71 88 92 89 83 85 83 80 78 79 77 74 72 84 92 78 70 71 72 76 84
98 98 98 98 97 98 98 99 98 92 96 98 98 96 98 99 99 97 95 96 97 98 96 96 96 96 96 96 95 94 95 90 82 74 70 73 77 90 91 84 84 84 84 88 82 86 88 86 87 88 84 84 78 80
98 96 95 97 97 98 97 97 97 96 97 96 95 96 97 97 97 98 95 97 97 96 94 95 95 96 96 95 95 96 95 94 89 82 82 90 93 96 92 91 89 91 92 81 81 83 87 91 93 90 91 88 83 77
95 96 96 95 95 95 95 95 95 95 96 97 98 97 97 94 96 100 97 97 95 96 96 96 96 96 96 96 96 96 95 95 97 97 93 93 98 100 94 92 94 94 85 89 82 84 91 94 92 88 88 84 81 75

GFSWCAN_925_rhum_012.txt.gz
RH
88 92 87 86 85 88 89 89 89 93 93 92 91 96 100 99 92 90 84 79 82 92 86 72 60 58 62 64 72 64 66 62 65 72 80 76 79 70 66 69 75 74 87 82 82 83 80 48 48 52 58 55 56 57
98 93 89 88 87 89 90 91 92 92 92 92 92 92 96 99 98 91 93 77 80 92 90 87 77 70 54 57 70 67 73 67 66 77 80 79 77 76 75 75 59 70 72 79 71 72 55 57 58 53 55 56 54 52
100 97 91 87 88 89 91 93 94 95 92 93 94 90 92 94 98 94 90 84 81 93 92 89 87 74 67 54 53 70 71 62 68 74 84 82 72 79 82 81 66 59 60 68 62 56 67 60 55 56 56 58 58 58
100 100 91 90 90 92 93 93 94 95 92 90 89 91 94 99 99 94 92 90 82 93 94 94 74 77 74 71 56 56 62 66 72 78 86 84 81 76 86 80 78 69 65 72 76 66 58 68 60 63 61 58 63 64
100 100 94 92 92 93 92 93 93 95 94 89 87 88 97 97 100 97 93 95 91 88 96 97 82 75 73 75 64 56 62 70 76 84 88 89 91 86 95 94 98 85 77 81 81 68 65 68 59 61 67 66 70 67
100 100 95 93 93 91 91 93 93 91 90 87 85 84 99 100 100 95 96 96 92 90 88 99 86 81 79 78 74 73 76 82 87 89 94 92 84 84 98 89 74 80 73 65 68 62 62 61 70 65 68 72 83 79
100 100 97 93 92 91 91 92 93 93 90 87 84 82 91 100 94 94 95 99 98 87 94 100 100 83 78 82 89 90 87 93 89 95 96 92 88 88 97 96 76 74 74 58 59 60 64 69 68 80 86 91 92 90
100 100 99 99 94 92 91 89 90 90 88 87 84 88 100 97 92 95 100 100 99 93 94 99 100 92 78 97 98 92 98 93 95 98 96 95 96 95 99 85 69 68 64 67 73 76 75 83 93 93 92 90 93 97
99 100 100 100 99 95 91 88 88 86 85 85 87 97 94 86 94 96 100 100 97 90 100 100 99 100 84 97 96 94 91 98 98 98 96 92 99 98 87 83 76 74 64 68 89 94 96 98 94 91 92 90 98 93
99 98 95 97 100 99 96 90 87 86 86 93 98 90 100 100 96 92 86 94 99 100 100 100 92 99 90 94 99 94 97 100 100 96 94 100 96 85 82 81 76 73 70 88 93 87 97 95 95 90 95 92 97 90
100 99 100 95 92 99 100 96 90 88 94 99 98 100 100 96 88 94 99 100 100 100 99 98 91 98 88 97 99 94 98 99 97 92 94 94 97 84 69 76 81 88 81 85 73 74 78 83 89 97 88 94 87 84
99 99 98 98 97 94 98 100 98 99 99 87 89 93 92 96 100 90 97 98 99 94 99 98 98 95 99 96 96 100 90 96 92 91 91 94 83 65 65 68 72 75 75 78 74 73 76 86 88 91 92 90 88 64
97 98 99 99 98 98 99 98 100 99 92 84 91 100 94 100 98 90 98 94 97 98 100 100 99 98 100 99 99 99 95 96 90 97 91 86 75 68 64 62 63 69 72 71 70 75 81 85 84 90 89 81 65 44
98 88 98 98 98 98 98 99 100 99 100 99 99 99 96 96 95 93 92 92 94 99 99 98 99 96 99 99 98 96 100 90 97 99 93 75 67 68 69 64 62 58 74 74 72 68 63 81 86 75 64 48 43 42
97 95 92 97 98 98 98 97 98 100 96 100 98 92 99 90 98 99 99 98 100 94 91 93 96 92 98 96 91 96 98 96 88 88 86 79 58 66 65 62 61 62 67 78 75 72 62 49 43 40 38 36 36 37
94 98 93 86 97 99 100 99 99 100 99 100 97 99 98 89 100 98 100 99 99 94 95 93 89 92 94 92 90 94 91 90 82 91 90 94 63 58 54 54 55 59 67 74 77 75 64 54 48 43 37 41 41 43
98 97 83 80 91 99 100 100 99 100 100 100 99 95 97 95 96 96 96 99 92 93 99 96 91 85 92 94 100 94 91 84 87 89 94 89 80 74 68 66 62 58 68 73 77 80 74 57 48 46 58 44 45 50
97 85 80 87 90 99 100 100 100 100 99 99 99 99 95 96 97 100 99 98 94 99 97 96 90 95 94 93 95 87 91 96 94 93 92 85 81 81 80 75 61 58 62 64 71 78 80 57 63 62 52 54 56 58
82 80 86 98 100 98 100 100 100 98 99 100 99 99 98 98 99 93 98 99 99 97 96 98 97 96 95 89 83 92 94 94 70 71 78 73 74 77 73 64 63 63 69 78 84 84 76 62 57 58 61 64 62 59
89 96 98 99 100 99 99 100 100 99 98 99 99 98 99 99 100 99 98 98 97 97 98 96 96 90 86 80 93 92 92 81 80 80 82 82 71 68 74 74 77 73 84 85 76 75 70 70 66 63 60 59 65 66
96 98 100 99 100 99 100 99 99 99 99 98 99 98 98 99 98 99 99 99 98 99 99 97 94 84 89 86 71 74 78 84 85 86 90 88 78 73 80 79 78 88 87 87 88 80 74 71 65 61 60 60 65 71
96 99 100 100 100 99 99 99 98 98 94 98 97 96 98 99 99 99 99 100 99 96 94 91 95 92 88 77 75 73 71 69 72 76 76 79 92 95 97 87 89 98 94 87 82 82 70 64 63 66 68 72 75 63
98 99 100 100 98 97 98 100 95 97 96 97 97 96 98 98 98 98 98 97 94 90 97 95 89 86 91 79 68 66 64 65 78 83 84 90 89 85 84 88 95 96 97 96 94 76 69 73 76 77 70 67 70 69
90 96 98 97 97 97 96 97 97 96 97 96 96 96 96 96 96 97 97 96 92 92 91 92 94 94 92 89 85 86 86 86 88 93 95 97 100 99 97 97 98 97 95 94 72 71 71 76 77 69 74 80 83 89
83 96 89 100 93 86 92 96 97 94 95 96 95 100 98 94 99 100 96 89 92 94 92 90 94 97 98 99 93 90 96 100 98 99 99 97 96 96 96 96 96 94 76 70 78 76 78 74 78 84 85 88 92 95
96 90 84 99 98 94 90 91 90 96 97 100 98 96 99 98 100 94 92 94 94 96 96 96 98 99 97 99 98 96 98 99 100 96 99 98 96 94 95 93 89 84 74 66 69 76 80 87 91 91 92 92 92 95
98 99 98 77 89 90 95 91 90 95 100 97 98 99 98 98 98 86 100 97 98 94 94 97 99 100 100 98 98 98 98 99 96 94 97 96 96 96 85 79 84 74 75 74 76 83 91 93 91 95 98 93 90 89
90 87 89 88 97 96 96 99 100 97 93 90 86 100 92 85 81 95 97 93 93 95 95 95 95 98 98 98 97 97 97 97 96 96 94 93 84 76 70 71 76 85 84 90 95 93 90 88 99 99 99 93 78 65
98 97 92 92 100 99 96 91 90 90 82 92 90 90 90 95 98 99 95 89 89 95 100 100 99 99 97 98 98 97 95 96 92 93 91 89 86 90 82 79 80 80 74 70 80 94 95 94 98 97 86 78 71 69
100 96 98 100 100 100 96 93 94 100 96 89 86 96 96 98 100 97 94 92 97 98 98 93 95 96 96 94 98 96 95 96 94 94 94 91 84 84 83 80 76 75 77 76 70 66 75 78 66 66 69 71 74 83
98 98 100 99 96 96 96 97 98 91 96 99 97 94 96 100 99 97 95 97 99 100 99 99 99 96 95 96 94 95 96 95 84 74 68 70 76 82 82 81 81 83 84 81 73 73 73 75 80 82 81 82 79 83
95 92 98 100 99 97 98 98 98 97 98 97 98 97 97 96 95 97 96 98 98 98 94 96 95 96 96 96 96 95 95 95 91 81 84 88 92 92 88 88 86 89 90 79 81 78 81 87 88 87 88 86 83 80
96 96 97 96 98 100 98 95 96 96 97 99 98 98 97 94 96 97 97 98 96 96 96 96 96 96 96 96 95 96 96 96 97 95 97 98 98 99 90 88 92 97 96 95 94 89 92 93 93 88 85 83 81 79

GFSWCAN_925_rhum_018.txt.gz
RH
99 100 99 100 96 100 98 92 87 84 84 91 92 89 100 100 100 92 85 91 84 87 88 78 64 61 62 62 57 58 58 57 70 73 82 86 76 72 73 69 61 61 78 77 83 79 71 52 51 57 60 64 61 60
100 100 100 100 99 98 100 93 88 86 86 92 86 86 98 100 100 97 88 86 86 88 89 91 85 77 61 58 68 71 71 67 67 84 82 84 81 79 77 78 71 68 58 64 67 68 60 60 56 64 60 64 60 60
100 100 100 100 100 97 100 88 87 87 89 89 87 88 90 100 100 96 87 86 84 94 94 90 94 80 74 74 60 72 80 67 76 75 86 84 70 83 82 78 68 64 67 72 66 65 64 63 62 59 56 59 60 60
100 100 100 100 99 85 100 94 87 87 87 88 92 90 87 95 100 93 87 87 79 90 96 96 81 79 77 74 61 61 67 77 83 85 86 86 79 80 81 74 72 70 69 74 75 77 69 64 59 62 64 67 72 70
100 100 100 100 99 81 100 93 88 87 88 90 90 93 91 89 95 91 87 92 86 81 97 99 82 77 82 66 66 64 68 77 86 85 84 88 92 90 97 90 89 84 76 78 76 71 71 72 65 64 68 66 68 72
100 100 100 99 83 91 100 92 89 88 89 89 90 94 91 92 93 85 89 89 86 86 90 100 88 85 83 77 81 88 89 92 93 90 95 94 86 84 96 94 73 82 80 72 70 70 74 76 76 68 78 83 82 83
100 100 100 98 88 100 100 92 91 90 91 86 92 90 93 100 96 89 84 90 88 83 90 100 98 83 80 84 92 89 86 96 91 95 95 92 92 86 91 93 68 78 79 74 73 74 74 71 78 85 89 95 91 94
100 100 100 100 100 100 99 93 92 91 88 93 93 99 100 93 92 96 98 92 84 85 89 100 100 94 80 97 98 95 95 92 97 98 96 92 94 89 97 84 77 80 83 83 84 81 78 91 93 96 94 94 95 92
100 100 100 99 100 100 100 93 92 90 90 94 99 97 84 81 94 99 89 82 77 76 99 97 97 98 85 98 96 92 93 99 96 98 96 87 98 98 77 84 85 82 76 87 96 98 94 97 100 96 91 91 92 88
100 100 100 100 100 100 99 97 95 94 93 97 88 84 100 100 99 89 76 91 98 100 95 97 93 98 93 95 99 93 97 100 100 97 94 100 98 83 83 79 78 82 83 95 97 96 99 97 99 96 96 93 92 90
99 100 100 100 100 99 98 99 99 96 99 85 98 100 100 96 80 96 99 96 98 98 96 95 91 97 90 97 99 98 99 98 99 94 98 98 96 88 77 80 84 89 86 77 72 73 69 61 76 82 89 92 91 90
99 100 100 100 100 100 97 98 99 100 99 86 95 96 91 93 94 88 99 99 98 90 98 98 97 97 99 94 94 98 96 94 91 93 97 99 87 75 74 77 85 90 87 84 72 74 76 77 80 85 86 88 91 92
96 100 100 100 100 100 100 96 100 93 91 88 94 100 99 100 99 97 99 99 100 99 100 100 99 98 100 95 99 95 90 92 89 92 77 86 82 74 78 76 76 76 77 76 74 69 71 75 80 84 86 87 88 91
96 99 100 99 100 99 100 100 100 100 91 98 100 98 97 99 95 87 92 92 93 100 99 96 99 99 99 97 95 87 94 90 99 95 98 88 79 75 78 72 68 68 69 68 65 65 64 71 76 80 85 86 87 88
95 99 99 100 100 100 100 99 99 94 98 100 100 97 99 98 98 99 96 98 99 96 92 94 95 94 99 98 93 97 99 96 85 90 88 82 77 79 77 73 68 61 66 67 67 71 70 68 69 70 74 81 79 71
96 88 99 100 100 100 99 100 99 99 100 100 98 97 95 96 99 99 97 99 99 90 91 91 96 94 99 95 99 95 93 94 87 92 93 89 80 70 66 63 60 60 60 61 63 65 67 71 70 64 56 52 48 48
92 97 100 96 99 100 99 100 100 100 100 99 99 92 96 97 96 96 96 99 92 85 97 94 90 92 94 98 97 94 94 86 92 93 91 79 74 67 64 65 67 66 64 63 63 63 65 69 73 69 72 58 47 45
92 93 99 100 98 100 100 100 100 99 98 99 98 99 100 97 98 99 96 95 91 93 92 86 89 98 95 97 98 93 96 97 97 94 93 83 81 79 79 66 71 70 68 66 61 65 74 82 82 81 70 61 54 56
79 86 97 99 99 100 100 100 100 98 99 99 98 98 99 99 98 96 97 96 93 88 90 95 90 91 90 93 92 96 96 96 80 81 79 75 70 70 70 74 78 79 78 73 69 75 81 85 84 76 68 64 69 69
83 90 97 96 93 100 99 99 100 99 98 99 98 99 99 99 99 96 94 96 94 94 93 91 80 78 80 86 95 92 94 82 79 77 76 81 77 78 81 81 83 78 76 87 90 89 79 74 70 68 67 66 67 71
82 97 98 98 100 100 100 99 99 99 99 98 98 97 98 98 98 98 99 98 97 95 94 90 86 87 95 92 83 84 87 83 82 79 92 92 84 84 84 81 81 86 90 92 94 90 82 80 75 72 67 67 67 62
92 99 99 99 99 99 99 99 99 98 98 98 98 98 98 98 98 99 100 98 98 98 95 89 96 97 95 89 89 86 82 81 81 82 81 85 95 92 94 87 93 99 95 92 86 86 82 75 76 76 72 70 55 52
98 97 98 99 98 97 97 99 97 97 97 97 98 97 97 97 97 98 97 98 97 96 97 93 96 93 93 85 82 89 87 81 89 88 88 89 94 97 92 94 87 95 98 100 96 95 95 94 88 69 65 56 56 61
92 94 95 97 97 96 97 97 96 96 96 96 96 96 96 96 97 97 96 97 95 90 85 87 92 94 89 88 94 100 99 98 98 99 98 100 99 95 98 99 100 99 94 99 96 96 93 85 78 63 62 67 78 89
77 93 90 95 96 94 95 95 96 94 95 95 95 96 96 96 96 96 96 91 91 91 87 88 94 95 97 100 96 99 98 99 93 90 97 97 94 96 97 97 97 98 97 94 95 84 78 72 70 72 81 89 90 93
98 93 91 95 96 94 95 95 96 95 95 95 94 95 95 93 90 80 90 93 90 95 94 93 93 96 98 98 94 94 95 96 99 91 99 99 95 92 96 95 97 95 85 73 67 74 79 77 77 84 86 86 92 87
95 100 90 76 84 84 90 94 91 93 94 92 94 95 90 86 86 83 94 91 97 95 94 94 92 95 97 98 100 97 97 100 98 97 99 98 97 97 92 92 95 86 70 63 62 64 70 74 84 90 91 89 85 78
96 89 96 97 96 94 93 97 97 94 95 88 84 96 79 73 76 96 97 99 99 98 96 96 94 94 94 96 97 98 99 99 98 97 95 95 94 84 76 74 77 75 70 70 71 69 78 90 94 93 94 89 72 68
100 96 91 92 98 100 98 91 91 93 85 93 88 92 92 93 97 96 100 99 94 95 95 96 100 100 100 100 100 100 99 97 91 96 96 98 97 96 97 93 88 90 92 90 93 93 94 98 94 95 74 72 71 68
95 99 98 97 99 99 99 95 94 100 96 91 88 96 94 96 100 100 95 95 97 100 100 99 99 94 98 96 100 98 97 96 95 86 96 98 96 95 81 73 70 68 66 62 60 61 81 64 63 68 73 72 70 80
97 97 99 100 100 99 99 95 98 91 97 100 99 96 98 100 97 98 96 98 99 99 99 100 100 100 96 97 95 97 99 95 95 95 94 94 91 82 78 76 77 77 74 69 70 72 75 76 80 84 83 80 75 81
90 85 93 100 100 97 97 100 100 100 100 100 100 100 99 99 100 98 98 99 99 97 99 100 96 100 98 96 95 96 93 96 96 96 94 93 88 84 84 84 83 84 83 83 84 88 88 86 87 93 94 87 80 76
96 96 96 98 100 100 97 96 98 100 99 100 100 99 99 97 98 99 98 99 100 99 100 100 99 98 98 98 97 98 96 96 97 98 100 97 93 92 86 87 92 92 91 90 93 93 90 94 96 96 88 83 80 74